Time,TemperatureF,DewpointF,PressureIn,WindDirection,WindDirectionDegrees,WindSpeedMPH,WindSpeedGustMPH,Humidity,HourlyPrecipIn,Conditions,Clouds,dailyrainin,SoftwareType,DateUTC
2013-04-13 00:00:00,66.2,48.0,29.75,SW,232,0.0,0.0,52,0.00,,,0.00,Wunderground v.1.15,2013-04-13 04:00:00,
2013-04-13 00:05:00,65.9,47.3,29.75,SW,232,0.0,0.0,51,0.00,,,0.00,Wunderground v.1.15,2013-04-13 04:05:00,
2013-04-13 00:15:00,65.2,48.1,29.76,SW,232,0.0,0.0,54,0.00,,,0.00,Wunderground v.1.15,2013-04-13 04:15:00,
2013-04-13 00:20:00,64.9,47.4,29.76,SW,232,0.0,0.0,53,0.00,,,0.00,Wunderground v.1.15,2013-04-13 04:20:00,
2013-04-13 00:25:00,64.5,47.5,29.76,SW,232,0.0,0.0,54,0.00,,,0.00,Wunderground v.1.15,2013-04-13 04:25:00,
2013-04-13 00:35:00,63.8,46.3,29.76,SW,232,0.0,0.0,53,0.00,,,0.00,Wunderground v.1.15,2013-04-13 04:35:00,
2013-04-13 00:40:00,63.4,48.8,29.77,SW,232,0.0,0.0,59,0.00,,,0.00,Wunderground v.1.15,2013-04-13 04:40:00,
2013-04-13 00:45:00,63.0,48.0,29.77,SW,232,0.0,0.0,58,0.00,,,0.00,Wunderground v.1.15,2013-04-13 04:45:00,
2013-04-13 00:55:00,62.1,46.7,29.78,NNW,333,0.0,0.0,57,0.00,,,0.00,Wunderground v.1.15,2013-04-13 04:55:00,
2013-04-13 01:00:00,61.9,47.0,29.78,NNW,333,0.0,0.0,58,0.00,,,0.00,Wunderground v.1.15,2013-04-13 05:00:00,
2013-04-13 01:05:00,61.7,47.7,29.78,NNW,333,0.0,0.0,60,0.00,,,0.00,Wunderground v.1.15,2013-04-13 05:05:00,
2013-04-13 01:15:00,61.2,47.2,29.79,NNW,333,0.0,0.0,60,0.00,,,0.00,Wunderground v.1.15,2013-04-13 05:15:00,
2013-04-13 01:20:00,61.1,46.7,29.79,NNW,333,0.0,0.0,59,0.00,,,0.00,Wunderground v.1.15,2013-04-13 05:20:00,
2013-04-13 01:25:00,60.9,46.0,29.79,NNW,333,0.0,0.0,58,0.00,,,0.00,Wunderground v.1.15,2013-04-13 05:25:00,
2013-04-13 01:30:00,60.7,46.3,29.80,NNW,333,0.0,0.0,59,0.00,,,0.00,Wunderground v.1.15,2013-04-13 05:30:00,
2013-04-13 01:40:00,60.4,46.0,29.80,NNW,333,0.0,0.0,59,0.00,,,0.00,Wunderground v.1.15,2013-04-13 05:40:00,
2013-04-13 01:45:00,60.3,46.4,29.80,NNW,333,0.0,0.0,60,0.00,,,0.00,Wunderground v.1.15,2013-04-13 05:45:00,
2013-04-13 01:50:00,60.0,46.1,29.80,NNW,333,0.0,0.0,60,0.00,,,0.00,Wunderground v.1.15,2013-04-13 05:50:00,
2013-04-13 01:55:00,59.8,47.2,29.80,NNW,333,0.0,0.0,63,0.00,,,0.00,Wunderground v.1.15,2013-04-13 05:55:00,
2013-04-13 02:05:00,59.5,46.0,29.81,NNW,333,0.0,0.0,61,0.00,,,0.00,Wunderground v.1.15,2013-04-13 06:05:00,
2013-04-13 02:15:00,59.2,45.8,29.81,NNW,333,0.0,0.0,61,0.00,,,0.00,Wunderground v.1.15,2013-04-13 06:15:00,
2013-04-13 02:20:00,59.0,46.8,29.81,NNW,333,0.0,0.0,64,0.00,,,0.00,Wunderground v.1.15,2013-04-13 06:20:00,
2013-04-13 02:25:00,59.0,46.8,29.81,NNW,338,0.0,0.0,64,0.00,,,0.00,Wunderground v.1.15,2013-04-13 06:25:00,
2013-04-13 02:30:00,58.7,47.0,29.82,NNW,338,0.0,0.0,65,0.00,,,0.00,Wunderground v.1.15,2013-04-13 06:30:00,
2013-04-13 02:35:00,58.4,46.3,29.82,NNW,338,0.0,0.0,64,0.00,,,0.00,Wunderground v.1.15,2013-04-13 06:35:00,
2013-04-13 02:45:00,58.1,46.0,29.82,NNW,339,0.0,0.0,64,0.00,,,0.00,Wunderground v.1.15,2013-04-13 06:45:00,
2013-04-13 02:50:00,58.0,45.9,29.82,NW,319,0.0,0.0,64,0.00,,,0.00,Wunderground v.1.15,2013-04-13 06:50:00,
2013-04-13 02:55:00,57.9,46.2,29.82,NW,319,0.0,0.0,65,0.00,,,0.00,Wunderground v.1.15,2013-04-13 06:55:00,
2013-04-13 03:00:00,57.7,46.0,29.82,NW,319,0.0,0.0,65,0.00,,,0.00,Wunderground v.1.15,2013-04-13 07:00:00,
2013-04-13 03:05:00,57.5,45.8,29.82,NW,319,0.0,0.0,65,0.00,,,0.00,Wunderground v.1.15,2013-04-13 07:05:00,
2013-04-13 03:15:00,57.2,45.9,29.83,NW,316,0.0,0.0,66,0.00,,,0.00,Wunderground v.1.15,2013-04-13 07:15:00,
2013-04-13 03:20:00,57.1,45.4,29.83,NW,316,0.0,0.0,65,0.00,,,0.00,Wunderground v.1.15,2013-04-13 07:20:00,
2013-04-13 03:25:00,57.0,45.3,29.83,NW,316,0.0,0.0,65,0.00,,,0.00,Wunderground v.1.15,2013-04-13 07:25:00,
2013-04-13 03:30:00,57.0,45.3,29.83,NW,316,0.0,0.0,65,0.00,,,0.00,Wunderground v.1.15,2013-04-13 07:30:00,
2013-04-13 03:35:00,57.0,44.9,29.83,NW,316,0.0,0.0,64,0.00,,,0.00,Wunderground v.1.15,2013-04-13 07:35:00,
2013-04-13 03:45:00,57.2,45.1,29.84,NW,317,0.0,0.0,64,0.00,,,0.00,Wunderground v.1.15,2013-04-13 07:45:00,
2013-04-13 03:50:00,57.1,45.0,29.84,NW,317,0.0,0.0,64,0.00,,,0.00,Wunderground v.1.15,2013-04-13 07:50:00,
2013-04-13 03:55:00,57.1,45.4,29.84,NW,317,0.0,0.0,65,0.00,,,0.00,Wunderground v.1.15,2013-04-13 07:55:00,
2013-04-13 04:00:00,56.9,44.8,29.84,NW,312,0.0,0.0,64,0.00,,,0.00,Wunderground v.1.15,2013-04-13 08:00:00,
2013-04-13 04:05:00,56.8,44.7,29.85,NW,309,0.0,0.0,64,0.00,,,0.00,Wunderground v.1.15,2013-04-13 08:05:00,
2013-04-13 04:15:00,56.5,44.5,29.85,NW,309,0.0,0.0,64,0.00,,,0.00,Wunderground v.1.15,2013-04-13 08:15:00,
2013-04-13 04:20:00,56.3,44.3,29.84,WSW,248,0.0,0.0,64,0.00,,,0.00,Wunderground v.1.15,2013-04-13 08:20:00,
2013-04-13 04:25:00,56.2,43.3,29.85,NW,310,0.0,1.0,62,0.00,,,0.00,Wunderground v.1.15,2013-04-13 08:25:00,
2013-04-13 04:30:00,56.3,43.0,29.85,WNW,283,0.0,0.0,61,0.00,,,0.00,Wunderground v.1.15,2013-04-13 08:30:00,
2013-04-13 04:40:00,56.4,42.7,29.86,NNW,336,0.0,0.0,60,0.00,,,0.00,Wunderground v.1.15,2013-04-13 08:40:00,
2013-04-13 04:50:00,56.3,43.0,29.86,NNW,348,1.0,1.0,61,0.00,,,0.00,Wunderground v.1.15,2013-04-13 08:50:00,
2013-04-13 05:00:00,56.0,42.3,29.87,NNE,21,0.0,0.0,60,0.00,,,0.00,Wunderground v.1.15,2013-04-13 09:00:00,
2013-04-13 05:05:00,55.9,42.2,29.87,South,171,0.0,0.0,60,0.00,,,0.00,Wunderground v.1.15,2013-04-13 09:05:00,
2013-04-13 05:15:00,55.5,41.8,29.87,NNW,345,0.0,0.0,60,0.00,,,0.00,Wunderground v.1.15,2013-04-13 09:15:00,
2013-04-13 05:20:00,55.3,42.5,29.87,NNW,345,0.0,0.0,62,0.00,,,0.00,Wunderground v.1.15,2013-04-13 09:20:00,
2013-04-13 05:25:00,55.0,41.8,29.87,NNW,344,0.0,0.0,61,0.00,,,0.00,Wunderground v.1.15,2013-04-13 09:25:00,
2013-04-13 05:35:00,54.5,41.3,29.87,NNW,346,0.0,0.0,61,0.00,,,0.00,Wunderground v.1.15,2013-04-13 09:35:00,
2013-04-13 05:40:00,54.4,40.8,29.87,WNW,287,0.0,0.0,60,0.00,,,0.00,Wunderground v.1.15,2013-04-13 09:40:00,
2013-04-13 05:45:00,54.4,40.8,29.87,NNW,348,1.0,1.0,60,0.00,,,0.00,Wunderground v.1.15,2013-04-13 09:45:00,
2013-04-13 05:50:00,54.5,40.9,29.88,NNW,333,0.0,0.0,60,0.00,,,0.00,Wunderground v.1.15,2013-04-13 09:50:00,
2013-04-13 06:00:00,54.6,40.1,29.88,WSW,239,1.0,1.0,58,0.00,,,0.00,Wunderground v.1.15,2013-04-13 10:00:00,
2013-04-13 06:05:00,54.6,40.6,29.89,SW,223,0.0,1.0,59,0.00,,,0.00,Wunderground v.1.15,2013-04-13 10:05:00,
2013-04-13 06:15:00,54.4,39.9,29.89,WNW,283,0.0,0.0,58,0.00,,,0.00,Wunderground v.1.15,2013-04-13 10:15:00,
2013-04-13 06:20:00,54.4,39.9,29.89,SSE,166,0.0,0.0,58,0.00,,,0.00,Wunderground v.1.15,2013-04-13 10:20:00,
2013-04-13 06:30:00,54.5,39.6,29.90,WNW,300,1.0,1.0,57,0.00,,,0.00,Wunderground v.1.15,2013-04-13 10:30:00,
2013-04-13 06:35:00,54.5,40.0,29.90,SSW,201,0.0,1.0,58,0.00,,,0.00,Wunderground v.1.15,2013-04-13 10:35:00,
2013-04-13 06:40:00,54.4,39.5,29.90,SSW,201,0.0,0.0,57,0.00,,,0.00,Wunderground v.1.15,2013-04-13 10:40:00,
2013-04-13 06:45:00,54.3,39.4,29.90,SSW,201,0.0,0.0,57,0.00,,,0.00,Wunderground v.1.15,2013-04-13 10:45:00,
2013-04-13 06:55:00,54.0,39.1,29.91,WNW,286,0.0,0.0,57,0.00,,,0.00,Wunderground v.1.15,2013-04-13 10:55:00,
2013-04-13 07:00:00,53.9,39.5,29.91,WNW,286,0.0,0.0,58,0.00,,,0.00,Wunderground v.1.15,2013-04-13 11:00:00,
2013-04-13 07:05:00,53.8,39.8,29.92,WNW,286,0.0,0.0,59,0.00,,,0.00,Wunderground v.1.15,2013-04-13 11:05:00,
2013-04-13 07:15:00,53.5,39.5,29.93,WNW,286,0.0,0.0,59,0.00,,,0.00,Wunderground v.1.15,2013-04-13 11:15:00,
2013-04-13 07:20:00,53.3,39.3,29.93,WNW,286,0.0,0.0,59,0.00,,,0.00,Wunderground v.1.15,2013-04-13 11:20:00,
2013-04-13 07:30:00,53.0,39.5,29.94,WNW,286,0.0,0.0,60,0.00,,,0.00,Wunderground v.1.15,2013-04-13 11:30:00,
2013-04-13 07:35:00,53.0,40.3,29.93,WNW,286,0.0,0.0,62,0.00,,,0.00,Wunderground v.1.15,2013-04-13 11:35:00,
2013-04-13 07:40:00,52.9,40.2,29.93,WNW,286,0.0,0.0,62,0.00,,,0.00,Wunderground v.1.15,2013-04-13 11:40:00,
2013-04-13 07:45:00,53.1,39.6,29.93,West,279,0.0,0.0,60,0.00,,,0.00,Wunderground v.1.15,2013-04-13 11:45:00,
2013-04-13 07:55:00,53.7,40.6,29.94,West,279,0.0,0.0,61,0.00,,,0.00,Wunderground v.1.15,2013-04-13 11:55:00,
2013-04-13 08:00:00,54.0,40.4,29.94,West,279,0.0,0.0,60,0.00,,,0.00,Wunderground v.1.15,2013-04-13 12:00:00,
2013-04-13 08:05:00,54.3,39.8,29.94,South,171,0.0,0.0,58,0.00,,,0.00,Wunderground v.1.15,2013-04-13 12:05:00,
2013-04-13 08:15:00,55.1,40.1,29.95,SE,129,0.0,0.0,57,0.00,,,0.00,Wunderground v.1.15,2013-04-13 12:15:00,
2013-04-13 08:20:00,55.5,40.5,29.95,ESE,120,0.0,0.0,57,0.00,,,0.00,Wunderground v.1.15,2013-04-13 12:20:00,
2013-04-13 08:25:00,56.0,40.5,29.96,NE,55,0.0,0.0,56,0.00,,,0.00,Wunderground v.1.15,2013-04-13 12:25:00,
2013-04-13 08:30:00,56.5,41.0,29.96,WSW,252,0.0,0.0,56,0.00,,,0.00,Wunderground v.1.15,2013-04-13 12:30:00,
2013-04-13 08:35:00,56.8,40.8,29.96,NW,307,0.0,0.0,55,0.00,,,0.00,Wunderground v.1.15,2013-04-13 12:35:00,
2013-04-13 08:40:00,57.3,40.8,29.96,North,5,0.0,0.0,54,0.00,,,0.00,Wunderground v.1.15,2013-04-13 12:40:00,
2013-04-13 08:45:00,57.6,41.1,29.96,WNW,290,0.0,2.0,54,0.00,,,0.00,Wunderground v.1.15,2013-04-13 12:45:00,
2013-04-13 08:55:00,58.2,40.6,29.96,West,274,0.0,1.0,52,0.00,,,0.00,Wunderground v.1.15,2013-04-13 12:55:00,
2013-04-13 09:00:00,58.4,40.8,29.96,WNW,301,0.0,0.0,52,0.00,,,0.00,Wunderground v.1.15,2013-04-13 13:00:00,
2013-04-13 09:05:00,58.7,41.1,29.96,WSW,242,0.0,0.0,52,0.00,,,0.00,Wunderground v.1.15,2013-04-13 13:05:00,
2013-04-13 09:15:00,59.0,40.9,29.96,WSW,240,0.0,0.0,51,0.00,,,0.00,Wunderground v.1.15,2013-04-13 13:15:00,
2013-04-13 09:25:00,59.5,40.8,29.96,NW,320,0.0,1.0,50,0.00,,,0.00,Wunderground v.1.15,2013-04-13 13:25:00,
2013-04-13 09:35:00,59.9,41.2,29.97,NW,325,1.0,1.0,50,0.00,,,0.00,Wunderground v.1.15,2013-04-13 13:35:00,
2013-04-13 09:40:00,60.1,41.9,29.96,NE,42,0.0,0.0,51,0.00,,,0.00,Wunderground v.1.15,2013-04-13 13:40:00,
2013-04-13 09:45:00,60.3,41.0,29.96,NE,35,0.0,2.0,49,0.00,,,0.00,Wunderground v.1.15,2013-04-13 13:45:00,
2013-04-13 09:55:00,60.8,41.0,29.97,SSE,159,1.0,2.0,48,0.00,,,0.00,Wunderground v.1.15,2013-04-13 13:55:00,
2013-04-13 10:00:00,61.0,40.6,29.96,ESE,111,1.0,1.0,47,0.00,,,0.00,Wunderground v.1.15,2013-04-13 14:00:00,
2013-04-13 10:05:00,61.3,40.3,29.97,South,180,1.0,5.0,46,0.00,,,0.00,Wunderground v.1.15,2013-04-13 14:05:00,
2013-04-13 10:15:00,61.6,40.6,29.97,WNW,302,1.0,1.0,46,0.00,,,0.00,Wunderground v.1.15,2013-04-13 14:15:00,
2013-04-13 10:20:00,61.8,40.8,29.97,ENE,73,1.0,1.0,46,0.00,,,0.00,Wunderground v.1.15,2013-04-13 14:20:00,
2013-04-13 10:30:00,62.2,41.7,29.97,WSW,250,1.0,1.0,47,0.00,,,0.00,Wunderground v.1.15,2013-04-13 14:30:00,
2013-04-13 10:35:00,62.5,42.5,29.97,WSW,254,0.0,1.0,48,0.00,,,0.00,Wunderground v.1.15,2013-04-13 14:35:00,
2013-04-13 10:45:00,62.9,41.2,29.97,SE,140,2.0,3.0,45,0.00,,,0.00,Wunderground v.1.15,2013-04-13 14:45:00,
2013-04-13 10:50:00,63.0,41.9,29.97,WNW,296,1.0,1.0,46,0.00,,,0.00,Wunderground v.1.15,2013-04-13 14:50:00,
2013-04-13 10:55:00,63.2,42.1,29.97,NE,45,1.0,1.0,46,0.00,,,0.00,Wunderground v.1.15,2013-04-13 14:55:00,
2013-04-13 11:05:00,63.4,41.1,29.97,SSW,192,1.0,1.0,44,0.00,,,0.00,Wunderground v.1.15,2013-04-13 15:05:00,
2013-04-13 11:15:00,63.7,42.5,29.97,WNW,298,1.0,1.0,46,0.00,,,0.00,Wunderground v.1.15,2013-04-13 15:15:00,
2013-04-13 11:25:00,64.3,41.9,29.97,SSE,164,1.0,1.0,44,0.00,,,0.00,Wunderground v.1.15,2013-04-13 15:25:00,
2013-04-13 11:30:00,64.4,42.0,29.97,NW,311,2.0,2.0,44,0.00,,,0.00,Wunderground v.1.15,2013-04-13 15:30:00,
2013-04-13 11:35:00,64.4,42.0,29.97,SSW,203,1.0,2.0,44,0.00,,,0.00,Wunderground v.1.15,2013-04-13 15:35:00,
2013-04-13 11:40:00,64.7,42.3,29.97,WNW,293,1.0,1.0,44,0.00,,,0.00,Wunderground v.1.15,2013-04-13 15:40:00,
2013-04-13 11:50:00,65.4,41.1,29.96,WNW,290,1.0,1.0,41,0.00,,,0.00,Wunderground v.1.15,2013-04-13 15:50:00,
2013-04-13 11:55:00,65.6,42.5,29.96,SSE,168,1.0,2.0,43,0.00,,,0.00,Wunderground v.1.15,2013-04-13 15:55:00,
2013-04-13 12:05:00,66.1,42.3,29.96,NW,321,1.0,2.0,42,0.00,,,0.00,Wunderground v.1.15,2013-04-13 16:05:00,
2013-04-13 12:15:00,66.3,43.7,29.96,WNW,298,1.0,2.0,44,0.00,,,0.00,Wunderground v.1.15,2013-04-13 16:15:00,
2013-04-13 12:20:00,66.6,44.6,29.96,NW,317,1.0,1.0,45,0.00,,,0.00,Wunderground v.1.15,2013-04-13 16:20:00,
2013-04-13 12:25:00,67.2,43.9,29.96,SE,132,1.0,3.0,43,0.00,,,0.00,Wunderground v.1.15,2013-04-13 16:25:00,
2013-04-13 12:35:00,67.6,44.3,29.96,NNW,343,2.0,2.0,43,0.00,,,0.00,Wunderground v.1.15,2013-04-13 16:35:00,
2013-04-13 12:40:00,68.0,42.8,29.96,SW,217,2.0,2.0,40,0.00,,,0.00,Wunderground v.1.15,2013-04-13 16:40:00,
2013-04-13 12:45:00,68.1,42.9,29.95,South,172,1.0,2.0,40,0.00,,,0.00,Wunderground v.1.15,2013-04-13 16:45:00,
2013-04-13 12:55:00,68.2,44.8,29.95,South,180,2.0,6.0,43,0.00,,,0.00,Wunderground v.1.15,2013-04-13 16:55:00,
2013-04-13 13:00:00,68.5,43.9,29.95,WNW,296,2.0,4.0,41,0.00,,,0.00,Wunderground v.1.15,2013-04-13 17:00:00,
2013-04-13 13:05:00,68.7,44.0,29.95,NNW,331,2.0,4.0,41,0.00,,,0.00,Wunderground v.1.15,2013-04-13 17:05:00,
2013-04-13 13:15:00,69.1,43.8,29.94,WNW,299,1.0,2.0,40,0.00,,,0.00,Wunderground v.1.15,2013-04-13 17:15:00,
2013-04-13 13:20:00,69.5,44.1,29.95,NW,311,1.0,2.0,40,0.00,,,0.00,Wunderground v.1.15,2013-04-13 17:20:00,
2013-04-13 13:30:00,70.0,43.9,29.95,SW,215,2.0,2.0,39,0.00,,,0.00,Wunderground v.1.15,2013-04-13 17:30:00,
2013-04-13 13:35:00,70.1,44.0,29.95,SSE,155,2.0,3.0,39,0.00,,,0.00,Wunderground v.1.15,2013-04-13 17:35:00,
2013-04-13 13:40:00,70.2,44.7,29.95,NE,41,2.0,3.0,40,0.00,,,0.00,Wunderground v.1.15,2013-04-13 17:40:00,
2013-04-13 13:50:00,70.4,44.9,29.95,NW,304,2.0,5.0,40,0.00,,,0.00,Wunderground v.1.15,2013-04-13 17:50:00,
2013-04-13 14:00:00,70.5,44.3,29.95,South,169,3.0,3.0,39,0.00,,,0.00,Wunderground v.1.15,2013-04-13 18:00:00,
2013-04-13 14:05:00,70.4,44.3,29.94,WSW,250,3.0,3.0,39,0.00,,,0.00,Wunderground v.1.15,2013-04-13 18:05:00,
2013-04-13 14:15:00,70.9,44.7,29.95,NNW,334,2.0,5.0,39,0.00,,,0.00,Wunderground v.1.15,2013-04-13 18:15:00,
2013-04-13 14:20:00,70.9,44.7,29.94,ESE,118,2.0,2.0,39,0.00,,,0.00,Wunderground v.1.15,2013-04-13 18:20:00,
2013-04-13 14:25:00,71.2,44.3,29.94,WNW,303,2.0,4.0,38,0.00,,,0.00,Wunderground v.1.15,2013-04-13 18:25:00,
2013-04-13 14:30:00,71.3,44.4,29.94,SSE,167,3.0,3.0,38,0.00,,,0.00,Wunderground v.1.15,2013-04-13 18:30:00,
2013-04-13 14:35:00,71.4,45.1,29.94,West,272,3.0,3.0,39,0.00,,,0.00,Wunderground v.1.15,2013-04-13 18:35:00,
2013-04-13 14:40:00,71.4,44.5,29.93,NW,318,2.0,2.0,38,0.00,,,0.00,Wunderground v.1.15,2013-04-13 18:40:00,
2013-04-13 14:45:00,71.7,44.0,29.93,WNW,300,2.0,2.0,37,0.00,,,0.00,Wunderground v.1.15,2013-04-13 18:45:00,
2013-04-13 14:50:00,72.0,45.7,29.93,SSE,155,1.0,2.0,39,0.00,,,0.00,Wunderground v.1.15,2013-04-13 18:50:00,
2013-04-13 14:55:00,72.4,46.7,29.93,North,5,1.0,2.0,40,0.00,,,0.00,Wunderground v.1.15,2013-04-13 18:55:00,
2013-04-13 15:05:00,72.4,44.6,29.93,South,172,3.0,4.0,37,0.00,,,0.00,Wunderground v.1.15,2013-04-13 19:05:00,
2013-04-13 15:15:00,72.3,45.3,29.92,West,275,2.0,2.0,38,0.00,,,0.00,Wunderground v.1.15,2013-04-13 19:15:00,
2013-04-13 15:20:00,72.6,46.2,29.92,South,174,2.0,3.0,39,0.00,,,0.00,Wunderground v.1.15,2013-04-13 19:20:00,
2013-04-13 15:30:00,73.0,45.9,29.92,WNW,291,2.0,2.0,38,0.00,,,0.00,Wunderground v.1.15,2013-04-13 19:30:00,
2013-04-13 15:35:00,73.2,46.8,29.91,SSE,159,1.0,2.0,39,0.00,,,0.00,Wunderground v.1.15,2013-04-13 19:35:00,
2013-04-13 15:40:00,73.5,45.6,29.91,SSW,200,1.0,1.0,37,0.00,,,0.00,Wunderground v.1.15,2013-04-13 19:40:00,
2013-04-13 15:45:00,73.9,46.0,29.91,NW,306,1.0,2.0,37,0.00,,,0.00,Wunderground v.1.15,2013-04-13 19:45:00,
2013-04-13 15:55:00,74.4,45.7,29.90,WNW,302,1.0,3.0,36,0.00,,,0.00,Wunderground v.1.15,2013-04-13 19:55:00,
2013-04-13 16:00:00,74.2,45.5,29.90,SSW,206,2.0,3.0,36,0.00,,,0.00,Wunderground v.1.15,2013-04-13 20:00:00,
2013-04-13 16:05:00,74.1,46.2,29.90,SSE,165,2.0,3.0,37,0.00,,,0.00,Wunderground v.1.15,2013-04-13 20:05:00,
2013-04-13 16:10:00,74.2,46.2,29.90,WSW,252,2.0,2.0,37,0.00,,,0.00,Wunderground v.1.15,2013-04-13 20:10:00,
2013-04-13 16:15:00,74.4,46.4,29.90,SSE,168,1.0,2.0,37,0.00,,,0.00,Wunderground v.1.15,2013-04-13 20:15:00,
2013-04-13 16:20:00,74.4,45.7,29.90,WNW,292,2.0,3.0,36,0.00,,,0.00,Wunderground v.1.15,2013-04-13 20:20:00,
2013-04-13 16:30:00,74.3,46.3,29.90,South,187,2.0,2.0,37,0.00,,,0.00,Wunderground v.1.15,2013-04-13 20:30:00,
2013-04-13 16:35:00,74.7,46.0,29.90,South,186,1.0,2.0,36,0.00,,,0.00,Wunderground v.1.15,2013-04-13 20:35:00,
2013-04-13 16:40:00,74.9,45.4,29.90,ESE,115,1.0,1.0,35,0.00,,,0.00,Wunderground v.1.15,2013-04-13 20:40:00,
2013-04-13 16:45:00,74.5,45.0,29.90,WSW,254,2.0,2.0,35,0.00,,,0.00,Wunderground v.1.15,2013-04-13 20:45:00,
2013-04-13 16:50:00,74.6,45.1,29.90,South,189,2.0,2.0,35,0.00,,,0.00,Wunderground v.1.15,2013-04-13 20:50:00,
2013-04-13 17:00:00,74.8,45.3,29.90,NW,311,1.0,1.0,35,0.00,,,0.00,Wunderground v.1.15,2013-04-13 21:00:00,
2013-04-13 17:05:00,74.9,44.6,29.90,North,360,1.0,1.0,34,0.00,,,0.00,Wunderground v.1.15,2013-04-13 21:05:00,
2013-04-13 17:15:00,75.4,45.8,29.89,SSW,198,1.0,1.0,35,0.00,,,0.00,Wunderground v.1.15,2013-04-13 21:15:00,
2013-04-13 17:20:00,75.7,44.5,29.89,West,280,1.0,1.0,33,0.00,,,0.00,Wunderground v.1.15,2013-04-13 21:20:00,
2013-04-13 17:25:00,75.6,43.7,29.90,SSE,150,1.0,3.0,32,0.00,,,0.00,Wunderground v.1.15,2013-04-13 21:25:00,
2013-04-13 17:30:00,75.0,45.5,29.90,SW,227,2.0,2.0,35,0.00,,,0.00,Wunderground v.1.15,2013-04-13 21:30:00,
2013-04-13 17:40:00,75.0,43.9,29.90,NW,311,2.0,3.0,33,0.00,,,0.00,Wunderground v.1.15,2013-04-13 21:40:00,
2013-04-13 17:45:00,74.9,44.6,29.90,SE,140,2.0,3.0,34,0.00,,,0.00,Wunderground v.1.15,2013-04-13 21:45:00,
2013-04-13 17:50:00,75.0,44.7,29.90,South,184,1.0,1.0,34,0.00,,,0.00,Wunderground v.1.15,2013-04-13 21:50:00,
2013-04-13 18:00:00,75.3,45.7,29.90,WSW,240,0.0,0.0,35,0.00,,,0.00,Wunderground v.1.15,2013-04-13 22:00:00,
2013-04-13 18:05:00,75.6,44.5,29.90,South,176,1.0,1.0,33,0.00,,,0.00,Wunderground v.1.15,2013-04-13 22:05:00,
2013-04-13 18:15:00,75.4,45.8,29.90,South,181,1.0,1.0,35,0.00,,,0.00,Wunderground v.1.15,2013-04-13 22:15:00,
2013-04-13 18:20:00,74.9,45.4,29.90,South,175,1.0,1.0,35,0.00,,,0.00,Wunderground v.1.15,2013-04-13 22:20:00,
2013-04-13 18:25:00,74.8,45.3,29.90,NNW,339,1.0,1.0,35,0.00,,,0.00,Wunderground v.1.15,2013-04-13 22:25:00,
2013-04-13 18:35:00,74.4,44.2,29.90,East,92,1.0,1.0,34,0.00,,,0.00,Wunderground v.1.15,2013-04-13 22:35:00,
2013-04-13 18:40:00,74.1,45.4,29.90,East,91,0.0,0.0,36,0.00,,,0.00,Wunderground v.1.15,2013-04-13 22:40:00,
2013-04-13 18:45:00,73.7,44.3,29.90,NE,55,1.0,1.0,35,0.00,,,0.00,Wunderground v.1.15,2013-04-13 22:45:00,
2013-04-13 18:50:00,73.3,44.0,29.90,WNW,292,1.0,1.0,35,0.00,,,0.00,Wunderground v.1.15,2013-04-13 22:50:00,
2013-04-13 18:55:00,73.1,43.8,29.90,South,178,1.0,2.0,35,0.00,,,0.00,Wunderground v.1.15,2013-04-13 22:55:00,
2013-04-13 19:05:00,72.6,44.8,29.90,South,178,0.0,0.0,37,0.00,,,0.00,Wunderground v.1.15,2013-04-13 23:05:00,
2013-04-13 19:15:00,72.1,44.4,29.91,SSE,149,0.0,3.0,37,0.00,,,0.00,Wunderground v.1.15,2013-04-13 23:15:00,
2013-04-13 19:20:00,71.9,44.9,29.91,SSE,149,0.0,0.0,38,0.00,,,0.00,Wunderground v.1.15,2013-04-13 23:20:00,
2013-04-13 19:25:00,71.6,46.0,29.91,SSE,165,0.0,0.0,40,0.00,,,0.00,Wunderground v.1.15,2013-04-13 23:25:00,
2013-04-13 19:30:00,71.3,47.0,29.91,SSE,165,0.0,0.0,42,0.00,,,0.00,Wunderground v.1.15,2013-04-13 23:30:00,
2013-04-13 19:40:00,70.5,49.3,29.91,SSE,165,0.0,0.0,47,0.00,,,0.00,Wunderground v.1.15,2013-04-13 23:40:00,
2013-04-13 19:45:00,69.8,48.1,29.91,SSE,165,0.0,0.0,46,0.00,,,0.00,Wunderground v.1.15,2013-04-13 23:45:00,
2013-04-13 19:50:00,69.1,47.4,29.92,SSE,165,0.0,0.0,46,0.00,,,0.00,Wunderground v.1.15,2013-04-13 23:50:00,
2013-04-13 19:55:00,68.5,47.5,29.93,SSE,165,0.0,0.0,47,0.00,,,0.00,Wunderground v.1.15,2013-04-13 23:55:00,
2013-04-13 20:05:00,67.0,47.7,29.92,SSE,165,0.0,0.0,50,0.00,,,0.00,Wunderground v.1.15,2013-04-14 00:05:00,
2013-04-13 20:15:00,65.8,47.2,29.92,SSE,165,0.0,0.0,51,0.00,,,0.00,Wunderground v.1.15,2013-04-14 00:15:00,
2013-04-13 20:20:00,65.2,47.6,29.93,SSE,165,0.0,0.0,53,0.00,,,0.00,Wunderground v.1.15,2013-04-14 00:20:00,
2013-04-13 20:25:00,64.6,47.6,29.93,SSE,165,0.0,0.0,54,0.00,,,0.00,Wunderground v.1.15,2013-04-14 00:25:00,
2013-04-13 20:30:00,64.0,47.5,29.93,SSE,165,0.0,0.0,55,0.00,,,0.00,Wunderground v.1.15,2013-04-14 00:30:00,
2013-04-13 20:35:00,63.4,47.4,29.93,SSE,165,0.0,0.0,56,0.00,,,0.00,Wunderground v.1.15,2013-04-14 00:35:00,
2013-04-13 20:45:00,62.3,47.8,29.94,SSE,165,0.0,0.0,59,0.00,,,0.00,Wunderground v.1.15,2013-04-14 00:45:00,
2013-04-13 20:50:00,61.8,47.8,29.94,SSE,165,0.0,0.0,60,0.00,,,0.00,Wunderground v.1.15,2013-04-14 00:50:00,
2013-04-13 20:55:00,61.2,47.6,29.94,SSE,165,0.0,0.0,61,0.00,,,0.00,Wunderground v.1.15,2013-04-14 00:55:00,
2013-04-13 21:05:00,60.3,47.2,29.94,SSE,165,0.0,0.0,62,0.00,,,0.00,Wunderground v.1.15,2013-04-14 01:05:00,
2013-04-13 21:15:00,59.5,47.3,29.95,SSE,165,0.0,0.0,64,0.00,,,0.00,Wunderground v.1.15,2013-04-14 01:15:00,
2013-04-13 21:20:00,59.0,47.2,29.95,SSE,165,0.0,0.0,65,0.00,,,0.00,Wunderground v.1.15,2013-04-14 01:20:00,
2013-04-13 21:25:00,58.9,47.6,29.95,SSE,165,0.0,0.0,66,0.00,,,0.00,Wunderground v.1.15,2013-04-14 01:25:00,
2013-04-13 21:35:00,58.1,47.6,29.96,SSE,165,0.0,0.0,68,0.00,,,0.00,Wunderground v.1.15,2013-04-14 01:35:00,
2013-04-13 21:40:00,57.7,47.6,29.96,SSE,165,0.0,0.0,69,0.00,,,0.00,Wunderground v.1.15,2013-04-14 01:40:00,
2013-04-13 21:45:00,57.4,47.7,29.97,SSE,165,0.0,0.0,70,0.00,,,0.00,Wunderground v.1.15,2013-04-14 01:45:00,
2013-04-13 21:50:00,57.0,47.7,29.97,SSE,165,0.0,0.0,71,0.00,,,0.00,Wunderground v.1.15,2013-04-14 01:50:00,
2013-04-13 22:00:00,56.4,47.9,29.98,SSE,165,0.0,0.0,73,0.00,,,0.00,Wunderground v.1.15,2013-04-14 02:00:00,
2013-04-13 22:05:00,56.0,47.8,29.98,SSE,165,0.0,0.0,74,0.00,,,0.00,Wunderground v.1.15,2013-04-14 02:05:00,
2013-04-13 22:15:00,55.3,47.9,29.98,SSE,165,0.0,0.0,76,0.00,,,0.00,Wunderground v.1.15,2013-04-14 02:15:00,
2013-04-13 22:20:00,55.0,47.6,29.98,SSE,165,0.0,0.0,76,0.00,,,0.00,Wunderground v.1.15,2013-04-14 02:20:00,
2013-04-13 22:25:00,54.7,47.6,29.98,SSE,165,0.0,0.0,77,0.00,,,0.00,Wunderground v.1.15,2013-04-14 02:25:00,
2013-04-13 22:30:00,54.4,47.7,29.98,SSE,165,0.0,0.0,78,0.00,,,0.00,Wunderground v.1.15,2013-04-14 02:30:00,
2013-04-13 22:40:00,53.9,47.9,29.98,SSE,165,0.0,0.0,80,0.00,,,0.00,Wunderground v.1.15,2013-04-14 02:40:00,
2013-04-13 22:45:00,53.7,47.7,29.98,SSE,165,0.0,0.0,80,0.00,,,0.00,Wunderground v.1.15,2013-04-14 02:45:00,
2013-04-13 22:50:00,53.5,47.5,29.99,SSE,165,0.0,0.0,80,0.00,,,0.00,Wunderground v.1.15,2013-04-14 02:50:00,
2013-04-13 22:55:00,53.2,47.5,29.99,SSE,165,0.0,0.0,81,0.00,,,0.00,Wunderground v.1.15,2013-04-14 02:55:00,
2013-04-13 23:05:00,52.8,47.5,29.99,SSE,165,0.0,0.0,82,0.00,,,0.00,Wunderground v.1.15,2013-04-14 03:05:00,
2013-04-13 23:15:00,52.4,47.4,30.00,SSE,165,0.0,0.0,83,0.00,,,0.00,Wunderground v.1.15,2013-04-14 03:15:00,
2013-04-13 23:20:00,52.3,47.6,30.00,SSE,165,0.0,0.0,84,0.00,,,0.00,Wunderground v.1.15,2013-04-14 03:20:00,
2013-04-13 23:25:00,52.1,47.4,30.00,SSE,165,0.0,0.0,84,0.00,,,0.00,Wunderground v.1.15,2013-04-14 03:25:00,
2013-04-13 23:30:00,51.9,47.2,30.00,SSE,165,0.0,0.0,84,0.00,,,0.00,Wunderground v.1.15,2013-04-14 03:30:00,
2013-04-13 23:35:00,51.7,47.3,30.00,SSE,165,0.0,0.0,85,0.00,,,0.00,Wunderground v.1.15,2013-04-14 03:35:00,
2013-04-13 23:45:00,51.4,47.4,30.00,SSE,165,0.0,0.0,86,0.00,,,0.00,Wunderground v.1.15,2013-04-14 03:45:00,
2013-04-13 23:50:00,51.3,47.3,30.01,SSE,165,0.0,0.0,86,0.00,,,0.00,Wunderground v.1.15,2013-04-14 03:50:00,
2013-04-13 23:55:00,51.2,47.5,30.01,SSE,165,0.0,0.0,87,0.00,,,0.00,Wunderground v.1.15,2013-04-14 03:55:00,